Wind_Speed
7 8 8 7 6 10 12 10 7 5 11 14 15 16 13 12 14 13 12 10 11 11 11 11 12 12 12 12 11 12 12 11 11 11 11 12 12 11 11 11 12 10 10
8 9 10 8 4 2 2 5 5 3 2 8 12 11 9 9 10 11 11 11 9 10 11 10 9 10 11 11 11 9 9 9 10 9 9 10 10 10 11 10 10 10 8
6 9 8 7 6 4 2 0 2 3 4 2 3 8 8 7 9 9 9 10 9 9 9 8 9 8 7 8 8 7 7 7 7 9 9 9 9 9 10 10 9 8 7
6 8 6 10 8 6 4 2 1 3 4 3 4 4 5 8 7 7 8 8 8 8 6 5 5 5 4 3 4 4 5 6 6 6 8 8 8 8 10 9 9 7 6
5 7 6 10 9 10 7 3 1 5 5 3 4 5 5 5 4 4 5 6 8 9 8 6 5 4 3 3 4 5 4 4 4 6 5 7 8 6 8 9 9 7 3
5 5 3 8 10 9 7 5 4 6 5 3 3 5 7 7 8 7 5 5 5 6 7 8 6 5 6 6 4 4 4 4 4 4 4 5 7 7 6 7 7 7 3
5 4 4 3 4 5 6 6 6 6 5 4 5 6 6 7 7 7 7 7 6 5 5 6 6 6 6 6 5 4 4 4 4 4 5 4 4 7 8 7 8 7 3
6 5 2 2 1 2 6 6 6 8 6 6 7 8 8 8 9 9 9 9 9 10 8 6 5 6 6 6 6 7 5 4 5 5 4 7 4 5 7 7 7 6 4
6 4 4 3 2 3 4 4 7 8 8 8 9 9 10 10 10 11 11 10 9 10 10 9 8 5 6 6 6 6 7 6 5 3 5 3 2 6 7 7 7 7 6
6 5 4 5 2 2 4 5 7 8 8 7 7 8 9 9 9 10 10 9 10 10 10 10 9 9 7 8 7 6 6 5 5 4 3 3 2 6 7 8 8 8 8
7 5 4 4 3 3 3 5 6 6 6 7 7 8 8 9 9 9 10 9 9 10 10 10 9 9 9 10 9 8 7 6 4 4 4 3 3 5 7 6 8 9 9
7 6 6 5 5 4 4 4 5 5 6 6 6 6 7 8 8 8 9 9 9 10 10 11 10 10 11 12 13 11 10 7 5 4 5 6 5 3 5 6 8 10 11
9 8 7 6 5 4 4 4 4 4 4 5 5 5 5 6 6 7 6 6 6 7 9 10 11 12 12 12 11 12 11 10 9 8 8 8 8 9 7 3 6 9 12
11 9 8 7 6 5 4 3 3 2 2 2 3 3 4 4 6 6 7 7 8 7 7 7 7 8 10 11 11 10 10 10 10 10 9 11 11 12 11 11 9 8 9
12 11 9 8 6 5 4 2 2 1 0 1 3 3 4 6 7 8 9 10 10 10 9 9 9 8 8 8 8 10 11 11 11 10 9 11 14 14 15 15 14 12 11
14 12 11 9 8 6 5 3 2 1 1 2 4 4 6 8 9 10 11 11 12 12 13 13 12 11 10 9 8 8 8 8 10 10 10 11 14 15 17 17 18 19 16
15 13 12 11 9 8 6 5 4 3 2 2 3 5 6 7 9 11 12 13 13 14 14 14 14 13 12 11 9 7 5 5 5 7 8 11 11 15 17 19 20 19 18
16 15 13 11 9 7 6 5 5 4 3 2 3 4 6 8 9 10 11 12 13 14 14 14 14 14 13 11 9 6 5 4 6 5 5 7 9 11 13 15 18 21 22
20 18 16 14 11 10 8 7 5 4 3 2 2 4 5 7 8 9 11 12 14 15 16 17 17 17 16 14 10 7 4 4 9 10 10 9 9 11 13 13 14 16 19
20 19 17 14 12 10 9 8 6 4 3 1 2 3 5 6 8 9 11 13 15 16 18 19 20 20 20 17 12 8 5 3 16 12 12 13 14 13 13 14 15 16 15
23 20 17 15 12 11 10 9 7 5 4 2 0 2 4 6 7 9 11 13 14 15 18 19 20 21 21 20 16 10 10 5 12 9 18 17 18 16 16 16 15 15 16
24 21 19 17 14 12 12 11 10 8 5 4 2 0 2 4 6 7 9 11 13 14 16 18 20 21 22 24 23 13 7 4 18 5 19 19 22 20 20 19 18 18 17
25 23 20 17 14 13 12 11 10 9 6 4 2 1 2 3 5 6 7 9 10 12 14 16 18 20 21 22 23 18 7 6 18 13 22 23 26 24 24 21 21 20 20
27 25 22 18 15 14 12 11 10 9 8 6 4 3 2 2 3 4 5 6 8 9 11 13 15 17 18 20 20 20 17 15 8 11 17 20 28 28 29 26 25 24 24
29 26 23 20 17 15 13 12 11 11 9 8 7 5 3 3 3 4 5 5 5 6 8 10 11 13 15 16 17 17 16 13 13 10 17 24 26 27 29 28 29 27 28
30 27 23 21 18 17 16 15 13 11 10 9 8 6 5 5 5 5 5 5 4 4 6 7 9 11 12 13 14 15 15 12 11 10 13 24 26 28 26 26 29 29 32
Wind_Direction
164 144 154 138 78 59 52 50 53 103 80 73 63 60 58 69 62 64 62 61 59 57 56 58 56 55 59 53 51 62 69 71 66 61 60 59 60 63 63 63 67 68 81
170 160 160 162 159 131 50 50 34 34 96 91 79 62 53 67 75 72 68 63 60 64 59 51 52 54 56 53 49 48 54 60 67 65 59 52 53 54 54 53 54 67 78
165 166 179 170 164 184 173 22 28 32 4 8 91 67 53 42 55 69 66 63 76 70 69 68 55 57 53 51 48 47 52 55 59 57 56 40 45 43 47 47 52 64 83
156 163 181 180 180 194 206 210 292 326 325 341 348 351 28 34 24 26 28 34 37 37 52 61 52 49 47 43 36 42 42 44 44 41 38 35 46 38 39 37 38 58 87
134 166 199 194 198 189 202 201 299 309 284 315 336 341 346 337 324 339 349 357 6 18 28 32 28 2 356 357 12 16 19 24 28 30 28 35 43 12 31 31 26 46 83
147 153 193 213 214 213 214 219 259 289 315 281 281 303 321 320 321 314 299 305 324 339 356 9 24 3 356 358 353 356 357 5 10 12 13 18 17 13 16 17 17 27 68
156 138 157 163 222 230 247 250 266 260 286 283 294 295 303 309 317 324 307 287 280 293 315 333 347 353 352 353 349 349 353 350 4 358 359 2 350 355 358 1 11 10 18
170 176 149 157 232 277 251 260 262 291 281 267 285 291 293 300 304 302 301 304 302 291 279 282 312 324 332 339 341 344 353 351 21 19 17 18 349 339 350 347 353 357 353
168 170 204 212 254 296 290 291 295 294 294 300 299 298 298 298 298 296 295 295 293 291 301 286 265 287 303 311 324 332 339 343 343 359 29 328 356 6 344 344 340 337 336
172 177 196 208 236 283 316 326 308 309 308 310 308 308 311 313 312 309 307 303 293 290 288 294 297 271 281 295 302 312 323 333 329 329 327 328 336 8 350 346 338 337 336
183 190 209 222 244 271 295 305 314 321 327 317 314 310 311 309 309 308 308 307 302 298 293 285 288 286 283 279 289 295 297 305 309 314 321 323 302 0 343 343 348 343 338
196 207 215 223 232 244 262 279 291 301 307 309 311 312 313 317 319 320 318 310 304 301 299 295 290 280 273 268 277 277 282 286 291 303 297 293 293 293 348 329 328 329 326
205 213 219 228 238 250 266 276 290 299 305 309 318 325 331 335 338 339 335 329 323 308 296 291 289 288 285 282 280 275 273 271 272 279 287 287 280 271 272 311 335 324 324
211 220 225 229 235 244 252 265 282 297 303 320 341 1 3 7 8 6 6 4 1 354 347 336 330 313 299 292 291 285 282 277 274 272 270 270 269 269 274 279 308 307 315
216 221 226 230 234 241 247 249 240 237 199 69 59 49 44 40 34 26 21 16 15 14 10 5 2 353 345 328 312 299 288 284 282 277 266 261 258 261 261 264 269 275 266
215 216 220 224 229 235 239 240 230 208 146 83 67 57 47 41 39 36 31 26 22 19 17 17 15 11 5 357 347 333 318 301 281 278 267 267 258 260 263 265 268 268 273
217 216 216 215 215 216 214 213 203 191 157 97 71 56 52 47 42 37 31 27 24 23 20 18 16 15 13 9 1 347 333 329 321 298 284 275 274 263 264 267 267 271 276
221 224 226 225 224 222 216 211 202 192 166 127 103 79 62 52 46 43 38 35 32 28 25 24 25 26 23 19 14 10 11 23 15 355 335 318 303 294 282 275 272 271 270
221 221 221 222 224 227 226 219 212 199 180 157 115 83 69 61 54 49 43 39 36 33 29 28 29 29 29 27 28 33 47 75 39 25 6 342 332 325 318 302 295 288 287
222 222 222 222 224 225 222 219 217 213 208 181 103 77 63 55 48 46 42 37 34 31 29 29 28 27 26 29 35 36 44 130 33 25 17 8 358 349 339 329 314 307 303
225 224 226 227 229 230 226 222 222 220 214 209 156 47 42 43 42 42 42 39 37 33 30 29 28 28 26 24 35 54 33 152 5 17 13 9 4 1 355 350 343 331 314
225 223 224 226 227 228 226 224 226 225 225 224 225 66 38 39 40 40 41 42 39 37 33 31 32 31 29 28 29 32 20 18 340 11 7 12 10 9 3 358 351 348 345
225 224 224 225 227 228 226 224 224 226 232 240 245 298 7 23 29 29 33 36 36 34 31 29 29 30 31 31 35 42 26 359 352 340 359 4 6 10 6 5 358 350 347
227 226 226 226 228 229 227 226 224 226 233 240 246 256 294 358 11 14 16 21 27 29 30 28 28 28 29 31 29 31 27 20 10 334 350 350 358 1 2 3 3 357 350
227 225 222 223 225 225 223 222 222 224 226 231 238 245 270 308 327 337 341 348 0 13 22 26 25 25 26 27 28 26 25 15 15 345 327 336 347 353 353 359 359 358 353
223 222 222 223 224 222 220 219 220 222 225 230 234 238 247 260 271 282 295 306 321 345 3 10 16 19 20 20 19 19 20 16 351 344 324 333 332 340 347 345 350 352 352
Height
1582 1582 1582 1582 1582 1582 1581 1579 1578 1577 1575 1574 1574 1573 1571 1569 1568 1568 1568 1567 1565 1563 1562 1560 1559 1558 1558 1557 1555 1553 1552 1551 1550 1550 1549 1548 1548 1548 1547 1546 1546 1545 1544
1580 1581 1582 1582 1582 1582 1581 1580 1579 1578 1577 1576 1574 1573 1572 1571 1570 1569 1568 1566 1566 1564 1562 1561 1561 1559 1559 1558 1556 1554 1554 1553 1552 1552 1552 1551 1551 1549 1548 1547 1547 1546 1546
1579 1580 1581 1581 1581 1581 1581 1580 1580 1579 1578 1576 1575 1574 1573 1572 1569 1569 1567 1566 1565 1564 1563 1562 1561 1560 1560 1558 1558 1556 1555 1555 1554 1553 1553 1553 1551 1551 1550 1549 1549 1548 1548
1578 1579 1580 1580 1581 1581 1580 1579 1580 1579 1579 1578 1576 1574 1573 1572 1571 1570 1569 1567 1566 1564 1562 1561 1560 1560 1559 1558 1557 1557 1557 1555 1555 1555 1556 1554 1554 1552 1551 1551 1550 1549 1549
1577 1578 1578 1579 1580 1579 1579 1579 1579 1579 1579 1577 1577 1576 1575 1573 1572 1571 1570 1569 1567 1565 1564 1563 1561 1561 1560 1559 1559 1559 1558 1556 1556 1556 1556 1555 1554 1553 1553 1552 1552 1550 1551
1578 1577 1578 1578 1579 1579 1578 1579 1579 1579 1579 1578 1577 1576 1575 1574 1573 1572 1571 1569 1568 1566 1564 1564 1563 1563 1560 1560 1559 1558 1557 1557 1557 1557 1557 1556 1555 1554 1553 1553 1553 1551 1551
1577 1577 1579 1578 1578 1578 1578 1578 1578 1578 1578 1578 1577 1575 1574 1573 1572 1571 1570 1568 1567 1566 1565 1564 1563 1562 1561 1560 1559 1559 1558 1557 1558 1557 1557 1556 1555 1555 1554 1554 1554 1553 1552
1577 1578 1578 1578 1578 1577 1577 1577 1577 1576 1576 1576 1576 1575 1574 1572 1571 1570 1569 1568 1566 1565 1565 1564 1562 1562 1561 1560 1559 1558 1557 1558 1558 1557 1557 1556 1556 1555 1555 1555 1554 1554 1552
1577 1577 1578 1578 1577 1577 1577 1576 1576 1576 1575 1574 1574 1573 1572 1571 1570 1569 1567 1566 1565 1565 1564 1563 1562 1561 1560 1560 1558 1558 1557 1557 1557 1557 1556 1555 1556 1555 1555 1553 1553 1553 1552
1577 1577 1578 1578 1577 1577 1576 1575 1576 1576 1574 1574 1573 1572 1571 1570 1569 1568 1566 1565 1564 1563 1562 1561 1560 1559 1559 1559 1558 1557 1556 1556 1556 1556 1555 1556 1555 1555 1554 1553 1553 1553 1552
1576 1577 1577 1577 1577 1578 1577 1576 1576 1575 1574 1573 1572 1571 1570 1569 1568 1566 1565 1563 1562 1561 1561 1559 1559 1558 1558 1556 1556 1555 1555 1555 1556 1555 1554 1554 1554 1554 1553 1553 1552 1552 1551
1576 1577 1577 1577 1577 1577 1577 1576 1575 1574 1573 1573 1572 1570 1569 1567 1566 1564 1563 1562 1560 1559 1558 1557 1556 1556 1556 1555 1555 1555 1554 1554 1554 1554 1553 1553 1552 1552 1553 1552 1551 1550 1550
1575 1576 1577 1576 1577 1576 1575 1575 1574 1573 1573 1572 1570 1569 1567 1566 1565 1563 1562 1561 1558 1557 1557 1556 1554 1553 1553 1553 1552 1552 1551 1552 1552 1552 1551 1551 1551 1551 1550 1549 1549 1549 1548
1574 1575 1576 1576 1576 1576 1575 1575 1573 1573 1572 1572 1570 1568 1568 1565 1564 1562 1561 1560 1557 1555 1554 1554 1551 1550 1549 1549 1548 1548 1548 1548 1549 1549 1549 1549 1548 1548 1548 1548 1547 1547 1546
1574 1575 1576 1576 1576 1575 1574 1574 1572 1572 1572 1571 1569 1569 1569 1566 1564 1563 1560 1559 1557 1555 1553 1552 1549 1548 1547 1547 1546 1544 1544 1544 1545 1546 1547 1546 1545 1546 1544 1544 1544 1543 1542
1573 1574 1575 1575 1575 1574 1574 1573 1573 1572 1572 1571 1570 1570 1568 1566 1564 1562 1561 1559 1557 1555 1553 1551 1550 1548 1546 1545 1543 1542 1542 1542 1541 1541 1542 1541 1542 1542 1541 1541 1541 1539 1540
1571 1572 1573 1573 1573 1573 1573 1573 1572 1572 1572 1571 1570 1570 1568 1566 1564 1562 1560 1559 1558 1555 1553 1552 1550 1548 1546 1543 1541 1542 1541 1539 1539 1538 1538 1537 1538 1537 1536 1537 1537 1536 1538
1570 1571 1571 1572 1572 1572 1572 1572 1571 1571 1570 1569 1570 1569 1568 1565 1563 1562 1562 1561 1558 1556 1554 1553 1551 1548 1545 1544 1543 1541 1540 1539 1537 1537 1536 1536 1534 1534 1533 1532 1532 1532 1532
1567 1568 1570 1571 1571 1571 1571 1571 1572 1570 1570 1570 1570 1568 1567 1565 1564 1563 1562 1561 1558 1556 1555 1552 1550 1547 1546 1544 1542 1540 1539 1538 1538 1537 1536 1534 1534 1531 1531 1531 1529 1529 1529
1565 1566 1568 1569 1569 1570 1570 1571 1571 1571 1571 1570 1569 1568 1566 1565 1564 1564 1562 1559 1557 1556 1554 1551 1548 1546 1545 1543 1541 1539 1538 1538 1537 1537 1537 1535 1533 1531 1530 1528 1527 1526 1526
1562 1564 1565 1567 1568 1569 1570 1570 1570 1570 1571 1570 1568 1567 1566 1565 1565 1563 1560 1559 1558 1556 1553 1550 1548 1546 1545 1543 1541 1540 1538 1537 1537 1538 1536 1534 1532 1530 1528 1526 1525 1524 1522
1560 1562 1564 1565 1566 1568 1569 1570 1571 1571 1570 1569 1568 1567 1566 1566 1564 1562 1560 1559 1557 1555 1553 1550 1548 1547 1545 1542 1540 1539 1540 1543 1540 1538 1536 1534 1531 1529 1528 1527 1524 1521 1519
1558 1560 1562 1564 1565 1566 1568 1568 1569 1570 1569 1569 1568 1567 1566 1565 1563 1561 1560 1558 1557 1555 1553 1550 1548 1547 1545 1543 1542 1543 1543 1544 1538 1537 1535 1533 1531 1529 1528 1526 1524 1520 1518
1554 1557 1560 1562 1564 1565 1566 1567 1567 1568 1568 1567 1567 1566 1565 1564 1563 1561 1560 1558 1556 1554 1553 1551 1549 1548 1546 1544 1543 1544 1544 1542 1542 1539 1536 1533 1530 1529 1528 1526 1522 1518 1515
1550 1553 1556 1559 1561 1563 1564 1565 1566 1566 1565 1565 1565 1564 1564 1563 1562 1561 1560 1558 1556 1555 1553 1551 1550 1549 1547 1546 1545 1546 1543 1541 1541 1540 1535 1531 1530 1528 1526 1523 1520 1516 1513
1545 1549 1554 1556 1558 1560 1561 1562 1563 1563 1563 1563 1563 1562 1562 1561 1560 1559 1558 1557 1556 1554 1553 1552 1551 1549 1548 1546 1546 1545 1543 1542 1541 1540 1537 1531 1527 1524 1522 1521 1517 1514 1510